Theta_e
331 331 331 330 329 329 330 328 326 327 328 329 329 329 330 329 329 329 330 330 330 330 331 331 332 331 331 332 333 332 332 331 330 328 327 328 329 329 328 328 328 327 327 327 327 327 327 327 326 326 325 324 324 324 324 323 323 322 322 322 322 322 322 321 321 320 321 320 320
331 331 330 326 326 328 330 328 327 327 328 330 330 330 330 329 329 329 330 330 330 330 331 332 331 331 331 332 333 333 332 331 330 329 328 328 329 329 328 328 327 327 327 328 327 327 327 327 326 325 325 324 324 324 324 323 322 322 322 321 322 322 322 321 321 321 321 320 320
330 331 331 331 330 330 330 330 329 329 330 330 330 330 330 330 330 330 330 330 331 331 331 331 331 331 331 331 332 333 333 332 331 330 329 329 329 329 328 327 327 327 327 328 328 327 327 326 325 324 324 324 324 323 323 323 322 321 321 321 321 321 321 321 321 321 321 320 320
331 332 332 332 332 331 330 330 330 330 330 331 330 331 330 331 330 330 330 330 330 330 330 331 330 331 330 331 331 332 332 330 331 330 329 329 329 329 328 328 328 327 328 329 328 328 327 327 326 325 324 324 324 323 322 322 321 321 321 321 321 321 321 321 321 321 321 320 320
331 331 332 332 332 332 331 331 331 330 331 331 330 331 330 331 330 330 330 330 330 331 331 331 330 330 330 330 331 331 332 330 326 328 329 329 329 329 329 328 328 328 328 329 329 327 326 327 326 325 325 325 324 323 322 322 322 321 321 321 321 321 321 321 321 321 321 320 321
331 332 332 332 333 332 332 332 332 331 331 331 331 330 330 330 330 330 330 330 331 331 331 329 328 328 328 330 330 330 331 331 328 328 329 328 329 329 329 329 328 328 328 329 328 328 327 326 325 325 325 325 324 323 323 322 321 321 321 321 321 321 321 321 321 321 320 320 320
331 332 332 333 333 333 333 333 333 332 331 330 330 330 330 330 330 330 330 331 331 331 330 327 327 328 328 329 329 329 329 330 329 329 328 327 327 328 328 328 328 328 328 328 328 327 326 326 325 323 322 322 323 323 322 322 321 321 320 320 320 320 321 321 321 320 320 320 319
331 332 332 334 334 334 334 334 333 332 331 330 330 330 330 330 330 330 330 330 331 331 330 329 329 329 329 329 328 329 329 329 328 328 328 327 326 326 327 328 328 328 328 327 327 327 326 325 324 323 322 322 322 322 322 321 321 321 320 319 320 321 320 320 320 320 320 320 320
331 331 333 334 334 334 335 335 333 332 331 330 330 330 330 330 330 330 330 330 330 330 330 330 330 329 329 329 328 328 328 328 327 327 327 327 326 326 326 327 327 327 327 327 326 326 325 325 323 323 323 322 322 322 321 321 321 320 320 320 320 320 320 320 320 320 320 320 320
330 332 333 334 334 334 335 335 334 333 331 330 331 330 329 326 328 329 330 330 329 330 330 330 330 329 329 328 328 328 328 328 327 327 326 326 325 325 325 325 326 326 326 326 326 325 324 324 323 322 322 322 322 322 321 321 320 320 320 320 319 320 320 320 320 320 319 319 319
330 331 332 333 333 334 334 334 334 333 332 331 331 331 330 326 328 329 330 330 330 330 331 330 329 329 329 328 328 327 327 327 327 326 326 326 324 324 325 325 325 326 326 325 325 324 323 323 322 322 322 322 322 322 321 321 320 320 319 320 319 319 319 320 320 319 319 319 320
330 331 331 332 333 333 333 334 333 333 332 332 331 331 331 331 330 330 329 330 330 330 330 330 329 329 329 328 328 327 326 327 327 326 325 325 325 325 325 325 325 325 325 325 325 324 323 322 321 321 321 321 322 322 321 321 320 319 319 319 319 319 319 319 320 319 319 319 319
330 330 331 332 333 333 333 333 333 333 333 332 332 332 331 331 330 330 330 330 330 330 330 330 330 330 330 329 328 327 326 326 326 325 325 325 325 325 325 325 324 325 325 325 325 324 323 322 321 321 321 321 321 321 321 321 320 319 319 319 319 319 319 319 320 320 319 319 319
330 331 331 332 332 332 332 332 333 333 333 333 333 333 332 331 330 330 330 330 330 330 330 330 329 329 329 329 328 327 326 326 326 325 325 324 325 325 325 324 324 324 324 324 325 324 323 322 321 321 321 320 321 321 321 321 320 319 319 319 319 319 319 320 320 320 319 318 318
330 330 331 332 331 332 331 332 332 332 332 332 332 333 332 331 330 330 330 331 330 331 330 330 330 329 329 329 328 327 326 326 325 325 324 324 324 324 324 324 324 324 324 324 324 324 323 322 322 321 321 320 320 321 321 321 320 320 319 319 319 319 319 320 320 320 319 318 318
330 330 330 330 331 331 331 331 331 331 331 331 332 332 332 331 330 330 330 331 331 331 331 330 330 331 330 328 328 327 326 325 325 325 324 323 324 324 323 323 323 323 323 323 323 324 324 322 322 322 321 321 321 321 320 320 320 320 320 320 320 320 320 319 320 320 319 319 318
329 329 330 330 330 330 331 331 331 330 330 330 331 331 332 331 331 329 327 328 330 330 330 330 330 330 329 327 327 327 326 325 325 324 324 323 323 323 323 323 323 323 323 323 323 323 323 323 322 322 322 321 321 321 320 320 320 320 320 320 320 320 320 319 319 320 319 319 318
328 329 329 329 329 330 330 330 330 330 330 329 330 330 331 330 330 328 327 326 328 329 329 330 330 329 328 328 327 326 325 325 324 324 324 323 323 322 322 322 323 323 323 323 322 322 322 322 322 322 322 321 321 321 321 320 320 320 320 320 320 320 320 320 320 320 319 319 318
329 329 329 329 329 330 330 329 330 329 329 329 329 330 330 330 330 329 328 327 327 327 328 329 329 328 328 327 327 326 324 325 324 324 324 323 323 322 322 322 322 323 323 322 322 322 322 322 321 321 321 321 321 321 320 320 320 320 320 320 320 320 320 320 320 319 319 318 318
328 329 329 329 329 330 330 329 329 328 329 329 329 330 330 329 329 328 327 327 326 327 328 328 328 328 328 327 327 326 325 325 324 324 324 323 323 322 322 322 322 322 323 322 322 322 322 322 321 321 321 321 321 320 320 320 320 320 320 320 320 320 320 319 319 319 319 318 318
328 329 329 330 329 329 329 328 328 328 329 329 330 330 330 329 328 328 328 327 327 327 328 328 329 328 328 327 327 326 325 324 324 324 323 323 322 322 321 321 322 322 322 322 322 322 322 321 321 321 321 321 320 320 320 320 320 320 320 320 320 319 319 318 318 318 318 318 318
328 329 330 330 329 328 327 327 328 329 329 329 329 329 328 327 327 327 328 328 328 327 328 328 329 329 328 327 326 326 325 324 324 324 323 323 322 321 321 321 321 321 322 321 321 321 321 321 321 321 321 320 320 320 320 320 320 320 319 319 319 318 318 318 318 317 318 318 318
328 329 330 329 327 326 326 327 328 329 329 329 329 328 327 327 326 327 328 329 327 327 327 328 329 329 328 327 326 326 326 325 324 323 323 323 322 321 321 321 321 321 321 321 321 321 321 321 321 321 321 321 320 320 320 319 319 319 318 318 318 318 318 317 317 317 317 318 318
328 329 329 328 327 327 327 328 329 329 329 328 328 328 327 327 327 327 327 328 327 327 327 328 328 328 328 328 327 326 325 324 323 322 322 322 321 321 321 321 321 321 321 321 320 319 319 319 320 321 321 320 320 320 320 320 319 318 318 317 317 317 317 317 317 317 318 319 319
328 328 327 327 327 328 328 328 328 327 328 328 328 328 327 327 327 327 326 326 326 327 327 327 327 327 328 327 327 326 325 324 323 322 321 321 321 320 320 320 321 321 320 318 310 307 308 311 316 319 320 320 320 320 320 320 319 318 318 317 317 316 316 316 317 318 319 318 313
327 327 327 327 328 328 327 327 326 326 327 327 327 328 327 327 326 326 326 326 326 326 326 326 326 324 324 326 326 325 325 323 322 321 320 320 320 320 320 320 321 321 319 313 304 302 302 304 306 311 316 321 320 320 319 319 319 318 318 317 317 316 316 316 316 311 306 301 299
326 326 326 327 327 326 326 326 326 326 326 327 327 327 327 326 326 326 326 326 325 326 326 326 326 321 319 326 325 324 324 323 322 321 320 320 319 319 320 320 321 321 317 307 301 300 300 301 302 305 311 320 320 320 319 319 319 319 318 317 317 317 316 316 309 304 299 298 298
325 325 325 326 326 325 325 325 325 326 327 328 327 327 326 326 326 326 326 325 325 325 325 325 325 323 323 325 324 324 323 322 321 321 320 320 319 319 320 320 321 318 311 303 301 300 301 301 302 303 306 312 318 320 319 319 319 319 319 318 318 317 316 313 306 302 299 299 298
324 323 324 324 325 326 325 325 326 327 327 328 327 327 326 326 326 325 325 325 325 324 324 324 324 324 324 324 324 323 322 321 321 320 320 320 319 320 320 320 319 312 304 300 301 301 301 301 301 301 303 307 316 319 320 320 320 319 319 319 319 318 316 311 305 302 301 300 299
324 324 324 324 325 325 326 326 327 328 328 328 327 326 325 325 325 325 324 325 324 324 323 324 324 323 323 323 323 322 321 321 320 320 320 319 319 319 319 318 316 310 303 299 301 301 301 301 300 300 301 302 310 316 318 317 316 315 316 317 318 318 315 309 305 302 302 300 299
324 324 324 324 325 325 326 327 327 327 327 326 325 325 325 324 324 324 324 324 323 322 322 323 323 323 323 323 322 321 320 320 320 320 319 319 317 318 319 318 314 308 302 298 300 300 299 298 298 298 298 299 301 303 305 305 305 305 306 308 311 312 311 307 304 302 301 299 297
325 325 324 324 324 325 325 326 326 326 326 325 325 324 324 324 324 324 324 323 323 322 322 323 323 322 322 322 321 321 320 320 320 319 319 319 319 319 318 315 311 305 299 297 298 297 297 296 296 296 296 297 299 300 302 301 300 300 300 301 303 304 304 304 302 301 300 298 297
325 325 325 324 324 325 325 325 325 325 325 325 325 325 325 324 323 323 323 322 322 322 323 323 322 322 322 321 320 320 319 319 319 318 317 317 319 318 316 312 308 302 297 296 296 296 296 296 295 295 295 295 297 297 297 297 296 296 296 296 297 299 300 301 301 301 300 299 298
325 324 324 324 324 323 324 324 324 324 324 323 322 322 321 320 318 316 314 313 313 313 314 315 318 319 320 320 320 319 318 317 318 319 319 319 319 316 313 309 304 299 296 295 295 295 295 295 294 294 294 294 295 295 295 293 293 293 292 293 293 293 294 295 297 298 299 299 298
324 323 323 323 322 321 320 317 316 314 313 312 311 310 309 308 307 305 304 303 303 303 304 304 304 305 305 306 308 311 314 316 318 318 318 318 315 311 307 304 300 297 295 295 295 294 294 294 294 294 294 294 294 294 293 291 290 290 290 290 290 290 291 291 291 292 293 293 293
321 319 317 315 314 313 312 311 310 308 307 306 305 304 303 303 303 302 302 300 300 300 300 300 300 301 301 301 302 303 306 310 311 312 312 311 307 305 302 300 298 296 295 294 294 294 294 294 293 294 294 294 294 292 291 290 289 288 287 287 287 287 288 288 288 289 289 290 289
315 313 312 310 309 308 308 307 306 305 304 303 302 302 301 301 301 300 300 299 298 298 297 297 297 297 297 297 298 299 300 302 303 304 303 303 302 301 300 299 297 296 294 294 294 294 293 293 293 293 293 293 292 291 290 289 287 286 286 285 285 285 286 286 286 287 287 287 288
312 310 309 308 307 306 305 304 303 302 301 300 299 299 298 298 298 297 297 296 295 295 294 294 293 293 293 294 294 294 295 297 299 299 300 300 299 299 298 297 296 295 294 293 293 293 293 293 293 292 292 292 291 290 289 287 286 285 285 284 284 284 285 285 285 285 285 286 286
309 308 307 306 305 304 303 302 301 300 299 298 297 297 296 296 295 295 294 294 293 292 292 291 291 291 291 291 291 291 291 292 293 294 295 296 296 295 295 294 294 293 293 292 293 292 292 292 292 292 291 290 290 289 288 286 285 284 284 283 283 283 283 284 284 284 284 285 286
307 306 306 304 303 302 301 300 298 298 297 296 295 294 294 293 293 293 293 292 292 291 290 289 289 289 289 289 288 288 288 288 289 289 290 291 292 292 292 292 292 291 291 291 292 292 292 292 291 291 290 290 289 288 287 286 285 284 283 283 282 282 282 282 283 283 283 284 285
306 305 303 302 301 300 299 297 297 296 295 294 294 293 293 292 292 292 291 290 290 289 289 288 288 287 287 287 287 286 285 285 286 286 287 288 289 289 290 290 290 290 290 290 291 291 291 291 291 290 290 289 289 288 287 286 284 283 282 282 282 282 281 281 282 282 282 282 283
Wind_Speed
12 10 9 9 9 8 8 8 8 8 9 10 10 11 11 11 11 11 10 10 10 9 9 8 9 10 12 15 16 16 15 15 14 14 14 15 15 15 16 15 16 15 14 13 13 14 14 15 13 10 9 9 10 11 11 10 9 9 9 9 10 12 14 15 15 15 15 13 9
13 12 10 9 8 8 8 8 8 8 8 9 10 10 11 11 11 11 11 11 10 10 9 8 10 12 14 16 16 16 15 15 15 14 14 15 16 16 15 14 15 15 15 13 13 13 13 14 12 10 8 8 9 10 11 11 11 10 10 10 10 10 12 13 14 15 15 14 11
14 12 11 10 10 9 8 8 8 9 10 10 9 10 10 10 10 10 10 11 11 11 10 9 11 13 15 16 15 15 15 14 14 14 14 14 16 16 15 14 14 15 14 12 12 12 12 13 11 9 8 8 9 10 10 11 10 10 10 11 9 9 9 10 13 13 13 11 11
13 12 11 11 12 12 11 9 10 11 11 10 10 10 10 9 9 9 10 11 12 12 11 11 12 13 15 15 15 14 14 14 14 14 14 13 15 15 15 15 14 14 14 12 13 13 13 13 10 8 8 9 11 11 10 10 9 9 8 9 8 8 9 9 10 11 10 10 11
13 12 12 11 13 13 12 10 11 10 10 9 9 9 9 9 9 9 10 11 11 11 12 14 13 13 14 15 16 15 14 14 13 12 12 13 14 15 15 15 14 13 13 13 14 14 14 13 9 7 8 9 9 10 10 10 10 9 8 6 7 8 8 9 9 9 10 10 10
13 12 12 11 13 12 11 10 10 10 9 9 9 10 10 9 9 10 10 10 11 12 14 15 14 14 14 15 16 15 14 13 12 12 12 13 12 13 13 14 14 13 13 13 14 14 14 13 8 7 7 8 8 10 11 11 10 10 8 7 7 7 8 9 9 9 9 11 12
13 13 12 11 12 11 10 9 9 9 9 9 11 12 12 11 11 11 12 11 11 12 13 13 14 14 15 16 15 15 14 13 12 12 12 12 10 10 11 12 14 14 13 13 14 14 13 12 9 7 7 7 8 10 12 11 11 10 10 9 7 7 9 11 9 9 11 14 16
14 13 12 11 11 11 10 10 8 8 8 8 11 12 13 13 13 13 13 12 12 12 12 12 14 16 16 16 15 15 14 13 13 12 12 11 11 10 10 12 13 13 13 14 14 14 13 11 9 8 8 8 8 10 13 14 13 13 12 11 8 8 8 10 10 10 12 16 18
13 12 12 11 11 10 10 9 8 8 8 9 11 12 13 14 14 14 13 11 12 13 13 13 15 17 17 17 16 15 13 13 13 13 12 12 11 10 10 11 12 13 13 13 14 15 14 11 9 9 9 9 9 11 14 16 16 15 14 12 10 9 9 10 11 12 14 17 19
13 13 12 11 11 10 9 9 8 8 9 10 11 12 12 12 13 13 12 11 12 13 14 14 16 16 17 17 16 14 13 13 13 13 13 13 11 11 11 11 12 12 12 12 13 14 14 11 10 10 10 10 12 14 16 17 18 17 15 10 11 12 12 11 13 14 15 16 19
14 14 13 11 11 10 9 9 7 7 7 9 10 11 11 11 11 11 11 11 13 15 16 16 16 15 15 15 14 14 13 13 13 13 13 12 12 12 12 11 12 12 12 12 12 13 12 11 11 12 13 12 14 15 16 18 19 18 16 12 14 15 15 13 14 14 15 16 19
15 14 14 12 12 11 10 9 6 6 6 7 8 9 10 11 11 11 12 13 14 15 16 16 15 14 13 12 13 13 13 13 13 13 13 13 12 13 13 13 13 13 12 12 11 11 11 11 12 14 15 14 14 14 16 18 19 19 18 15 16 16 16 15 14 14 14 15 18
15 14 14 13 12 12 10 8 7 6 6 6 7 7 8 9 10 11 12 13 13 14 14 15 14 13 12 12 13 13 13 13 14 14 14 13 13 13 13 13 13 13 13 12 11 11 11 12 13 14 16 16 13 13 15 18 19 19 18 18 18 17 16 15 15 14 14 15 17
14 14 14 14 13 12 10 9 7 6 6 6 6 6 7 8 9 10 10 10 11 11 12 13 11 11 11 13 13 13 14 13 14 14 14 14 13 14 14 13 14 14 13 12 11 11 12 13 14 14 15 16 15 15 16 18 18 18 18 18 19 18 17 15 15 15 15 16 16
14 14 14 15 14 12 10 10 8 7 7 7 6 6 7 8 8 8 8 8 9 8 8 9 8 9 10 13 14 14 14 14 14 14 14 14 14 14 14 13 14 14 13 12 11 12 12 14 14 15 15 16 16 16 17 17 17 18 18 18 19 18 17 16 15 15 16 17 17
14 14 15 15 14 13 11 10 8 7 7 7 6 6 7 7 7 6 7 8 7 6 5 6 7 8 10 12 13 14 14 14 14 14 14 14 14 14 14 14 14 14 14 14 13 12 12 13 14 15 16 16 16 17 17 17 17 18 18 18 18 18 17 16 16 16 16 18 17
13 14 15 15 15 14 13 11 8 7 7 8 7 7 7 7 7 6 6 7 6 5 5 5 6 7 9 10 12 13 13 13 14 14 14 14 14 15 14 14 14 14 14 14 14 13 13 13 13 14 15 16 16 17 17 17 17 17 18 18 18 18 17 16 16 16 16 18 18
13 14 14 15 15 15 14 13 10 8 8 9 9 9 8 8 8 7 6 6 6 6 6 5 6 7 9 10 11 11 11 13 13 13 13 14 14 14 14 14 14 14 14 14 14 13 13 13 14 14 15 15 16 16 17 17 16 16 17 17 17 17 17 16 15 15 15 17 17
13 13 13 14 14 14 14 12 10 9 9 10 10 10 9 8 8 7 6 5 5 6 6 6 6 7 8 10 10 10 10 12 13 14 14 14 14 14 14 14 14 14 14 14 13 13 13 13 14 14 15 15 15 15 15 16 15 15 16 16 16 17 17 16 15 14 14 16 16
13 12 11 11 12 12 11 10 10 10 10 10 11 11 10 8 7 6 5 5 5 5 5 6 7 8 9 10 11 10 10 10 12 13 14 13 14 14 14 14 14 14 14 13 13 13 13 13 14 15 15 15 14 15 15 15 14 14 15 15 16 16 17 16 15 14 14 15 16
13 11 10 9 9 9 9 9 10 11 11 11 11 10 9 7 6 5 5 5 5 5 6 7 8 9 10 11 11 11 10 9 11 13 13 13 13 14 14 14 14 14 14 13 13 13 13 13 14 14 15 14 14 14 15 14 14 14 14 13 15 15 15 15 14 14 14 14 15
12 11 9 8 7 7 8 10 11 11 11 11 10 9 8 7 6 5 5 5 6 6 7 8 9 10 10 10 11 11 10 9 11 12 12 12 12 12 12 12 14 14 13 13 13 13 13 13 14 14 14 13 14 14 14 13 13 13 13 13 14 14 14 14 14 14 14 14 14
11 10 9 7 8 8 9 11 11 10 10 9 9 8 8 8 7 7 7 6 7 8 9 9 9 10 10 10 10 10 10 10 10 11 11 11 11 11 11 11 13 14 13 12 12 12 12 12 14 14 13 12 13 14 14 13 13 13 13 13 14 14 14 13 13 13 12 13 13
11 10 9 7 9 10 11 11 10 9 8 8 8 8 8 9 9 9 8 8 9 9 9 7 7 8 9 9 9 10 10 10 11 11 11 11 11 11 11 10 11 12 12 10 10 10 10 10 12 12 12 11 12 13 13 13 12 13 13 14 14 14 13 13 13 13 13 12 10
10 9 9 9 11 11 11 9 8 7 7 7 7 8 9 9 9 9 10 10 9 8 7 7 7 7 8 9 9 9 10 10 11 11 11 10 10 10 10 9 9 9 9 9 9 10 9 9 10 10 10 10 11 11 12 12 13 13 14 14 14 13 13 13 12 11 10 10 11
8 8 9 11 11 10 9 8 7 6 6 7 8 8 9 9 9 10 10 9 8 7 7 7 6 6 6 7 8 9 9 9 10 10 10 10 10 10 9 8 7 7 7 9 10 11 10 10 10 9 9 9 10 10 10 11 12 13 14 14 13 13 13 12 12 12 13 13 14
7 8 10 10 9 8 8 8 7 7 7 8 9 9 9 9 9 9 9 8 7 7 7 6 6 5 5 6 8 9 9 8 9 10 10 10 11 10 10 8 7 6 7 11 13 13 12 12 11 10 9 9 9 9 10 10 12 13 13 13 13 13 13 13 14 15 15 14 14
8 9 10 9 9 8 9 9 9 9 9 10 9 9 8 9 9 8 8 8 8 7 6 6 6 5 4 5 7 8 9 9 9 9 10 10 11 11 10 8 7 7 9 14 15 15 14 13 13 11 10 9 9 9 9 10 11 11 11 11 12 12 12 13 14 15 15 15 14
9 9 9 9 10 10 11 10 11 10 10 9 9 8 8 8 8 9 9 9 9 7 6 5 5 4 4 5 7 8 9 9 9 9 9 10 10 10 9 8 8 9 12 17 18 17 16 15 14 13 11 10 9 8 8 10 10 10 10 10 11 11 12 13 13 13 13 14 13
10 10 11 11 11 12 12 11 10 9 8 8 8 8 7 8 9 9 9 9 8 7 6 5 5 5 6 6 7 8 8 9 8 9 9 10 10 10 9 8 8 10 13 18 18 17 16 15 14 12 11 9 6 4 4 5 6 6 6 7 9 11 13 15 15 14 13 13 14
12 13 14 14 13 12 11 10 9 8 7 7 7 7 7 8 8 9 8 8 7 6 6 6 7 7 7 7 7 8 9 9 8 9 9 10 9 9 9 9 10 11 13 17 18 17 17 16 17 19 20 18 15 13 11 11 10 9 8 6 7 10 14 16 15 15 14 15 14
15 15 15 13 12 10 10 9 8 7 7 7 8 8 8 8 8 8 8 7 7 7 7 7 8 8 8 8 8 9 9 9 9 9 9 9 9 9 9 10 11 12 14 18 21 22 23 24 25 25 24 21 17 15 15 14 14 13 13 13 15 16 16 14 14 14 15 14 14
14 13 12 11 10 9 8 8 8 8 8 8 9 9 8 7 6 5 5 5 5 5 5 5 8 9 10 10 10 10 10 9 9 9 10 10 9 10 11 11 11 13 17 23 26 27 28 29 28 27 25 22 18 17 17 16 14 13 13 15 16 17 17 16 14 13 13 13 13
12 11 11 10 10 9 8 7 7 7 7 7 6 7 7 9 10 10 10 9 9 9 9 7 4 4 5 5 6 7 9 9 9 10 10 10 11 12 12 12 11 15 21 28 29 30 30 30 29 28 25 22 18 17 17 17 15 14 15 16 16 17 17 16 14 13 13 12 11
12 11 10 10 10 11 12 13 14 15 15 15 14 13 14 15 15 15 14 13 14 14 14 13 13 12 11 10 9 6 6 8 9 10 10 11 12 14 15 14 14 18 25 30 30 30 30 30 29 27 25 21 17 17 18 18 17 17 17 17 18 18 18 18 16 15 14 13 13
15 15 15 17 17 17 17 18 18 18 19 18 17 17 16 16 15 14 13 14 15 16 15 14 14 14 14 15 14 12 11 10 11 11 12 14 16 17 17 16 16 20 25 29 30 30 29 29 29 27 24 19 16 15 16 16 16 17 18 19 19 19 19 17 16 15 14 13 13
19 19 19 20 19 19 18 18 19 19 19 18 17 16 16 16 14 13 13 14 16 16 16 15 16 16 16 16 15 15 14 15 16 16 16 16 17 18 18 16 15 17 21 27 28 29 29 29 28 26 23 18 16 15 15 14 14 16 17 18 18 18 17 16 15 15 15 13 13
20 20 20 20 20 19 19 19 19 19 19 18 16 16 15 15 14 13 13 14 16 17 17 16 16 16 15 15 16 17 18 18 18 18 17 17 17 17 17 16 13 12 14 21 26 28 29 29 28 25 22 18 16 15 14 14 14 15 16 16 15 15 15 13 13 14 15 16 16
21 21 21 21 21 20 20 20 20 19 18 17 16 16 15 14 13 13 13 14 16 17 17 17 16 15 15 16 18 19 21 21 21 20 19 18 17 17 17 16 14 12 11 15 22 27 29 29 28 26 23 18 16 15 14 14 16 16 15 14 14 14 14 13 13 13 15 19 21
22 22 22 21 21 21 21 21 19 18 17 17 17 16 16 15 14 14 14 15 16 17 17 17 17 16 16 17 19 21 22 22 21 20 19 19 18 19 18 18 16 15 14 14 19 24 28 29 28 25 22 17 15 14 14 14 16 16 15 13 13 13 13 12 12 12 14 17 19
22 22 22 22 21 21 21 21 19 18 17 17 17 16 15 14 14 15 15 16 16 16 16 16 18 18 18 18 19 21 22 22 20 20 19 19 19 19 18 18 18 17 16 16 18 21 25 26 26 24 21 16 15 13 13 14 15 16 16 13 12 12 11 12 11 12 13 14 15
Wind_Direction
186 184 183 185 188 191 192 192 188 184 180 178 176 175 175 177 177 177 178 179 178 178 181 183 187 190 191 186 184 186 190 192 188 187 186 183 182 181 180 178 176 176 177 176 172 171 172 175 175 173 172 173 177 180 182 179 174 172 169 164 162 165 168 170 168 165 163 162 162
186 183 181 181 185 189 192 194 190 185 180 177 175 174 174 176 177 177 177 179 177 176 177 181 186 190 190 187 182 184 188 191 188 187 186 184 184 183 181 179 176 176 176 173 170 169 172 175 173 171 169 169 173 177 180 180 174 171 168 163 160 163 168 171 169 167 163 160 159
185 182 179 179 184 188 192 195 192 186 181 176 174 173 173 175 176 176 176 177 175 174 174 179 186 189 189 186 181 182 186 190 187 186 186 185 185 184 182 180 177 176 174 169 168 169 172 174 173 170 167 166 171 175 177 177 172 170 168 163 159 161 166 170 169 167 164 160 159
184 181 179 180 184 188 192 196 193 187 181 174 171 170 171 173 175 175 175 175 173 173 175 179 184 187 188 186 181 181 183 187 185 185 185 185 186 185 184 181 177 173 169 165 167 169 171 172 171 169 167 166 171 174 175 173 169 169 169 164 160 161 164 167 167 167 165 162 160
185 182 180 181 185 189 193 197 193 187 180 171 168 167 169 172 174 174 174 175 173 173 175 179 183 185 186 186 181 180 181 183 182 183 184 185 187 186 184 179 175 170 165 163 167 169 170 169 167 165 166 167 172 176 176 169 167 167 168 163 163 164 165 164 165 166 166 164 161
184 182 180 180 184 188 192 197 194 188 179 170 167 166 168 171 173 175 176 176 172 171 173 178 182 184 185 185 181 179 179 180 179 181 182 183 185 185 181 175 173 168 164 163 167 169 169 168 164 162 164 165 171 176 175 166 166 167 168 164 166 167 166 164 165 165 166 166 163
183 180 178 178 182 185 190 195 193 187 178 169 167 168 170 173 176 177 176 175 169 168 171 177 182 183 183 183 180 178 178 178 178 180 181 181 181 178 174 169 170 168 165 165 167 169 170 168 165 163 163 164 171 175 175 166 166 167 168 167 168 169 168 166 165 166 167 168 165
180 177 173 173 178 182 187 191 189 184 177 170 170 170 171 175 178 178 176 174 169 168 171 177 182 182 181 181 178 177 176 177 177 179 181 180 178 171 165 163 166 167 166 166 167 169 171 171 169 167 166 166 170 175 174 169 169 170 170 169 168 171 173 170 168 169 170 170 168
177 173 169 170 175 179 182 186 185 182 178 173 172 171 172 175 179 179 177 174 171 170 171 177 181 180 179 178 175 174 174 176 176 178 180 182 178 171 164 161 164 166 166 166 167 170 172 173 174 173 171 170 172 175 175 172 173 174 173 171 169 171 173 172 171 172 172 172 170
173 170 167 169 173 174 175 178 181 182 180 176 173 172 172 176 180 180 177 174 172 172 173 177 180 178 176 175 172 171 171 174 175 177 179 182 179 173 167 164 166 166 165 165 167 170 172 174 176 177 176 176 176 176 176 175 176 176 175 173 171 170 170 172 172 173 174 175 173
171 168 166 169 171 171 170 172 177 182 183 179 175 172 173 177 180 179 176 173 174 174 175 177 179 176 172 170 167 167 169 173 174 176 178 181 179 175 172 169 169 168 167 165 166 169 173 175 178 178 178 179 179 178 177 176 178 177 177 175 173 171 171 172 172 174 176 177 175
170 168 166 168 170 170 168 169 173 180 185 184 178 176 177 180 181 179 176 174 175 176 176 178 178 173 167 163 162 164 167 171 172 174 176 180 180 178 175 172 173 172 171 168 167 170 173 176 178 178 179 179 180 180 178 178 179 179 179 178 175 174 174 173 173 173 175 177 176
168 166 165 166 169 171 170 170 171 176 183 185 178 178 180 182 180 178 176 174 175 175 176 177 176 170 162 158 158 161 165 169 171 173 176 180 181 180 178 175 176 176 177 175 172 172 175 178 178 178 178 179 180 180 179 179 179 180 181 179 178 177 176 174 173 172 173 176 177
165 163 163 164 169 172 173 173 173 174 177 180 174 173 176 180 178 176 173 171 174 175 174 174 172 165 157 155 157 160 164 167 170 173 176 178 181 181 179 178 178 179 180 182 178 176 176 179 180 180 179 179 181 181 180 179 181 181 181 180 179 179 177 175 172 172 173 176 177
161 161 161 164 168 173 177 178 176 174 174 176 170 167 168 174 174 172 170 172 182 179 171 166 160 153 151 153 157 160 163 166 170 173 176 178 181 181 181 179 179 180 182 184 184 181 178 179 181 181 181 180 181 181 181 180 181 182 182 181 181 180 178 176 174 173 174 176 177
158 159 161 163 168 174 179 181 178 175 173 173 169 166 165 167 170 172 171 169 178 175 159 147 142 143 147 152 157 159 162 166 169 173 176 178 180 181 181 180 180 180 181 184 187 186 182 179 182 182 182 182 181 181 181 181 181 182 182 182 182 181 180 178 177 176 175 175 176
156 158 161 165 171 176 181 183 180 176 174 171 171 173 173 169 173 176 171 159 157 153 147 143 143 147 150 153 157 159 162 166 169 173 176 179 180 181 182 182 181 181 181 183 187 187 185 180 181 183 183 182 182 181 181 180 180 181 181 181 181 181 180 179 178 177 174 172 173
155 158 162 166 173 178 182 184 181 177 174 173 178 182 182 177 175 171 162 148 142 143 149 157 161 161 158 155 157 159 162 166 170 173 176 178 180 181 182 183 182 182 182 183 186 187 185 180 180 181 182 182 182 181 180 179 179 179 179 178 178 178 178 177 177 174 170 168 166
154 157 161 167 174 178 181 182 180 177 177 179 183 184 182 175 164 154 145 143 143 148 156 169 179 176 168 159 159 160 163 167 170 173 176 177 179 180 182 183 183 184 184 184 185 184 183 178 178 179 180 180 180 180 179 178 177 177 175 174 174 175 175 174 172 168 164 161 158
153 155 160 167 172 176 178 179 180 181 181 182 183 181 175 162 146 138 140 154 158 163 170 185 192 185 174 164 162 163 166 169 172 173 175 176 178 180 182 183 184 185 185 184 183 182 180 177 176 177 178 177 177 177 177 176 175 174 172 171 171 171 170 169 166 162 159 156 153
153 155 158 161 165 168 173 179 184 185 184 182 180 173 163 147 139 142 155 169 170 174 182 196 197 187 174 165 164 165 168 172 174 174 174 175 178 180 182 183 184 186 186 184 183 181 178 174 175 175 175 174 173 172 173 173 171 170 169 168 167 166 164 162 159 156 154 153 152
153 154 155 154 159 168 178 187 189 186 182 179 173 165 157 151 154 162 171 176 178 184 191 200 196 184 171 162 162 164 167 170 172 173 174 175 178 180 181 182 185 186 186 185 181 178 175 171 172 172 171 169 169 168 168 169 167 165 163 162 161 160 157 156 154 152 151 151 152
155 154 153 153 166 178 187 192 190 183 174 168 165 162 161 165 174 180 183 183 186 191 193 195 187 176 165 157 158 160 162 165 169 172 174 175 176 178 180 182 185 187 186 184 179 174 171 168 169 169 168 165 164 164 164 164 161 159 157 156 154 153 151 150 148 146 146 147 151
155 154 154 160 178 185 188 189 183 172 160 156 159 162 167 173 179 184 186 186 187 186 183 176 167 158 153 150 154 157 161 164 168 171 173 174 174 175 177 180 184 186 185 181 175 171 168 165 166 166 165 161 160 160 160 159 156 153 152 150 149 148 147 146 146 147 147 147 140
153 154 160 176 184 185 182 178 170 161 155 157 164 171 176 178 178 180 182 182 178 170 160 151 147 145 147 150 154 158 161 164 166 168 170 171 172 173 174 176 179 180 178 171 164 160 158 158 159 160 159 157 154 153 153 152 149 149 149 148 147 145 145 145 145 140 127 110 93
150 161 176 187 183 176 168 163 162 161 164 172 178 180 179 176 176 176 176 173 164 153 144 140 139 142 149 155 156 158 161 163 164 165 166 167 169 170 170 171 170 169 165 157 151 146 143 142 143 146 148 148 146 145 143 142 143 145 146 146 145 145 144 142 127 109 92 82 82
163 178 186 188 177 168 162 164 169 172 176 182 182 179 174 172 172 172 170 162 151 142 137 137 137 141 151 161 157 157 158 159 161 162 163 164 166 167 168 166 165 161 154 146 142 138 134 131 131 133 136 139 139 140 140 138 140 141 143 143 144 144 139 128 112 103 99 97 96
185 188 189 186 177 173 174 176 178 179 179 177 171 166 163 161 165 166 162 151 143 139 138 139 138 142 154 164 158 156 155 156 158 160 161 163 164 165 165 164 161 153 145 142 139 135 131 128 128 129 129 130 131 132 133 134 136 138 138 138 141 138 131 116 109 107 107 105 102
191 189 187 187 181 179 178 179 177 175 169 158 150 147 147 152 158 157 152 145 143 142 142 142 140 147 158 165 157 153 153 155 156 158 160 163 164 163 161 158 151 144 141 142 139 136 133 130 129 128 128 129 134 138 142 145 146 145 142 141 142 136 125 111 112 112 112 110 105
190 189 188 188 181 174 170 170 167 160 148 131 131 135 142 151 151 148 145 143 144 144 142 141 144 153 161 161 153 151 153 155 155 156 158 161 160 158 154 147 142 141 142 142 138 134 129 125 118 109 100 91 92 95 104 120 129 128 130 143 145 135 123 112 113 114 112 109 105
189 189 187 183 174 165 157 154 151 143 134 126 132 140 148 152 148 145 143 141 138 136 135 141 148 156 160 155 150 151 152 152 153 154 155 156 153 149 141 132 134 135 135 132 123 115 108 99 91 83 78 74 74 72 71 71 69 65 65 78 95 103 105 106 109 110 110 111 110
187 183 177 167 158 150 144 142 142 139 135 136 143 147 149 149 148 146 144 139 136 138 143 151 155 156 155 149 149 149 150 150 151 151 150 149 144 134 124 118 122 120 115 110 104 99 94 90 86 83 81 81 80 79 76 72 68 65 63 63 69 78 87 97 101 104 106 109 111
173 162 149 140 138 138 140 144 147 148 149 152 154 150 144 137 130 122 117 119 114 114 125 148 161 162 159 155 152 151 150 147 145 144 142 140 132 119 110 106 108 107 105 103 100 98 96 94 91 88 86 83 82 80 77 75 72 69 66 64 66 71 77 87 93 99 103 106 109
140 129 124 128 135 136 132 122 119 117 117 117 119 114 100 81 74 68 65 66 64 59 54 52 77 105 120 126 129 138 144 144 140 138 136 133 119 107 100 99 103 106 106 104 102 100 99 97 94 92 90 87 85 83 80 77 74 70 68 67 66 65 66 68 73 78 85 91 96
116 110 105 101 103 99 92 83 78 76 74 72 71 68 64 61 64 66 67 68 67 64 60 55 53 52 51 48 48 61 93 119 124 124 120 112 100 95 95 99 106 109 108 105 104 103 101 100 98 95 93 90 87 84 81 78 75 72 70 68 66 65 64 63 63 64 67 72 80
99 93 87 80 79 79 80 80 78 76 75 74 73 70 68 65 66 68 70 72 71 69 66 62 59 57 54 51 47 47 52 67 77 82 85 88 90 93 97 102 108 109 108 106 106 105 103 101 99 97 94 92 90 87 85 82 79 74 71 68 66 64 63 63 63 63 65 69 77
90 88 86 84 82 81 80 80 78 77 76 74 73 72 71 69 67 66 67 70 71 70 67 62 60 58 57 57 55 52 52 58 66 71 75 81 89 93 96 98 99 103 105 108 107 106 104 102 100 98 97 95 95 93 90 87 82 77 73 70 69 68 67 67 66 65 65 68 74
89 89 88 86 85 83 81 79 79 78 77 76 74 72 71 70 68 65 65 69 72 72 70 66 63 61 61 63 61 57 54 55 62 67 71 75 82 86 88 86 80 82 93 104 106 105 104 102 101 100 100 101 101 98 95 91 87 83 79 76 74 71 70 70 69 68 68 69 74
88 87 87 86 85 84 82 80 79 79 80 79 77 75 73 71 70 68 68 69 72 74 73 71 67 65 64 65 65 61 56 53 55 58 62 66 70 75 78 77 68 61 67 89 100 103 102 101 101 101 102 103 102 101 98 96 92 89 86 83 80 76 73 72 72 72 71 71 73
86 85 85 85 85 84 82 81 80 80 80 80 78 77 75 74 74 74 73 72 73 74 75 73 70 67 65 65 66 64 61 56 54 55 59 62 64 66 70 73 68 61 58 66 87 96 100 101 101 102 102 102 102 102 101 99 97 94 91 88 85 82 78 75 74 74 73 71 71
83 83 83 83 83 83 83 82 81 80 79 79 79 79 78 78 78 77 77 76 75 75 75 74 71 68 66 65 68 68 66 62 57 56 57 60 60 61 64 68 68 64 60 58 72 84 92 97 99 100 102 102 102 102 102 102 99 98 96 94 93 90 88 83 79 76 74 72 71